Flag for Canada Weather past 2 weeks in Ottawa, Ontario, Canada

Now
37 °F

Partly sunny.


Feels Like: 28 °F
Forecast: 11 / 39 °F
Wind: 17 mph from Southwest

Location: Ottawa Int'L. Ont.

Current Time: Mar 29, 2015 at 3:49:56 PM

Latest Report: Mar 29, 2015 at 3:00 PM


Visibility: 15 mi

Pressure: 30.08 "Hg

Humidity: 38%

Dew point: 14 °F

Location of OttawaLocation

Historic Weather in Ottawa — Graph

°F

Ottawa temperature yesterday

Maximum temperature yesterday: 28 °F (at 4:00 PM)
Minimum temperature yesterday: 10 °F (at 6:00 AM)
Average temperature yesterday: 19 °F

Past Weeks' High & Low Weather Summary

 TemperatureHumidityPressure
High41 °F (Mar 16, 5:00 PM)100% (Mar 15, 12:00 AM)30.42 "Hg (Mar 15, 12:00 AM)
Low1 °F (Mar 23, 7:00 AM)24% (Mar 28, 6:00 PM)29.55 "Hg (Mar 17, 6:00 AM)
Average25 °F67%30.04 "Hg
* Reported Mar 14 2:00 PM — Mar 29 2:00 PM, Ottawa, Weather by CustomWeather, © 2015

Note: Actual official high and low records may vary slightly from our data, if they occured in-between our weather recording intervals... More about our weather records

Advertising

Ottawa weather history for previous 24 hours

 ConditionsComfort  
Time TempWeatherWind HumidityBarometerVisibility
2:00 PM
Sun, Mar 29
36 °FMore clouds than sun.15 mph38%30.11 "Hg15 mi
1:00 PM37 °FScattered clouds.15 mph33%30.14 "Hg15 mi
12:00 PM34 °FPassing clouds.8 mph38%30.19 "Hg15 mi
11:00 AM28 °FPassing clouds.7 mph43%30.21 "Hg15 mi
10:00 AM27 °FPassing clouds.8 mph46%30.22 "Hg15 mi
9:00 AM23 °FSunny.7 mph46%30.22 "Hg15 mi
8:00 AM18 °FSunny.6 mph53%30.22 "Hg15 mi
7:00 AM14 °FPassing clouds.3 mph57%30.20 "Hg15 mi
6:00 AM14 °FClear.7 mph52%30.19 "Hg15 mi
5:00 AM14 °FClear.5 mph52%30.18 "Hg15 mi
4:00 AM14 °FClear.6 mph57%30.17 "Hg15 mi
3:00 AM16 °FClear.5 mph53%30.17 "Hg15 mi
2:00 AM18 °FClear.5 mph45%30.17 "Hg15 mi
1:00 AM18 °FClear.3 mph49%30.17 "Hg15 mi
12:00 AM18 °FClear.5 mph49%30.17 "Hg15 mi
11:00 PM
Sat, Mar 28
21 °FClear.3 mph42%30.17 "Hg15 mi
10:00 PM23 °FClear.7 mph42%30.15 "Hg15 mi
9:00 PM23 °FClear.6 mph46%30.14 "Hg15 mi
8:00 PM27 °FSunny.7 mph31%30.11 "Hg15 mi
7:00 PM28 °FSunny.10 mph26%30.09 "Hg15 mi
6:00 PM28 °FSunny.13 mph24%30.07 "Hg15 mi
5:00 PM28 °FSunny.15 mph31%30.07 "Hg15 mi
4:00 PM28 °FSunny.16 mph34%30.07 "Hg15 mi
3:00 PM27 °FSunny.15 mph33%30.08 "Hg15 mi
Weather by CustomWeather, © 2015

See weather overviewHow to use our weather pages